Regional Weather Roundup
Issued by NWS

Home | Current Version | Previous Version | Graphics & Text | Print | Product List | Glossary On
Versions: 1 2 3 4 5 6 7 8 9 10 11 12 13 14 15 16 17 18 19 20 21 22 23 24 25 26 27 28 29 30 31 32 33 34 35 36 37 38 39 40 41 42 43 44 45 46 47 48 49 50
000
ASUS45 KBOI 111410
RWRID
WEATHER ROUNDUP FOR IDAHO
NATIONAL WEATHER SERVICE BOISE ID
800 AM MDT FRI JUL 11 2014

NOTE: "FAIR" INDICATES FEW OR NO CLOUDS BELOW 12000 FEET
WITH NO SIGNIFICANT WEATHER AND/OR OBSTRUCTIONS TO VISIBILITY

IDZ012-014-111500-
SOUTHWEST IDAHO


CITY           SKY/WX    TMP DP  RH WIND       PRES   REMARKS
BOISE          SUNNY     72  43  35 SW3       29.93R
CALDWELL       SUNNY     70  45  40 NW6       29.94R
MOUNTAIN HOME  SUNNY     72  42  33 NW3       29.94R
$$

IDZ016-017-111500-
SOUTHCENTRAL IDAHO


CITY           SKY/WX    TMP DP  RH WIND       PRES   REMARKS
BURLEY         MOSUNNY   71  54  54 S14       30.00R
JEROME         SUNNY     73  50  44 CALM      30.01R
TWIN FALLS     SUNNY     77  50  38 S13       30.00R
$$

IDZ019>023-111500-
SOUTHEAST IDAHO


CITY           SKY/WX    TMP DP  RH WIND       PRES   REMARKS
IDAHO FALLS    MOSUNNY   61  56  83 CALM      30.09R
POCATELLO      SUNNY     73  58  59 NW7       30.05R
REXBURG        SUNNY     60  52  74 NE5       30.11R
$$

IDZ006-010-011-018-031-032-111500-
CENTRAL IDAHO MOUNTAINS


CITY           SKY/WX    TMP DP  RH WIND       PRES   REMARKS
MCCALL         SUNNY     57  44  62 CALM      30.08R
HAILEY         MOSUNNY   63  43  48 NW9       30.11R
STANLEY          N/A     49  39  68 CALM      30.23R
SALMON         SUNNY     61  52  72 N3        30.05R
CHALLIS        SUNNY     59  43  55 CALM      30.11R
$$

IDZ002-004-006-007-026-111500-
NORTHERN IDAHO


CITY           SKY/WX    TMP DP  RH WIND       PRES   REMARKS
LEWISTON       SUNNY     66  46  48 NE5       29.95R
LOWELL           N/A     56  52  86 CALM      30.01R
COEUR D`ALENE  SUNNY     63  54  72 E10       29.97S
MULLAN PASS    SUNNY     62  40  44 CALM      30.17R
$$



USA.gov is the U.S. government's official web portal to all federal, state and local government web resources and services.